Zurück zum Katalog

FENGYUN 1C DEB

AktivSSO
NORAD 29993·DEBRIS·🇨🇳 China

Gestartet May 10, 1999 von Taiyuan Satellite Launch Center

Loading…

Nächste Überflüge (nächste 24 Stunden)

TLE

AktuellSource: Space-Track

Epoche: Sep 14, 2026, 07:33 UTC

1 29993U 99025LT  26257.31492291  .00000169  00000-0  12352-3 0  9992
2 29993  98.7609 291.4845 0038123 256.2100 103.4826 14.08224106 10495

Verfolge FENGYUN 1C DEB in Echtzeit mit AllMySat

Download on the App Store